Orbital Elements at Epoch 2459200.5 (2020-Dec-17.0) TDB
Reference: JPL 15 (heliocentric ecliptic J2000)
Element | Value | Uncertainty (1-sigma) | Units |
e | .2441266122519776 | 3.8281e-08 | |
a | 2.412454274228641 | 8.2055e-09 | au |
q | 1.8235099850484 | 9.0485e-08 | au |
i | 1.91757680104212 | 4.9408e-06 | deg |
node | 33.91057962654615 | 0.00012366 | deg |
peri | 273.2596797392839 | 0.0001243 | deg |
M | 56.16990062462751 | 9.8958e-06 | deg |
tp | 2458986.955585070536 (2020-May-17.45558507) | 3.7561e-05 | TDB |
period | 1368.63317399036 3.75 | 6.9827e-06 1.912e-08 | d yr |
n | .263036149379889 | 1.342e-09 | deg/d |
Q | 3.001398563408883 | 1.0209e-08 | au |
|
| | Orbit Determination Parameters
Additional Information
|